Tracking 29892 objects as of 21-Nov-2024
HD Live streaming from Space Station
objects crossing your sky now

CH 3 PROPULSION MODULE

Track CH 3 PROPULSION MODULE now!


NORAD ID: 57770
Int'l Code: 2023-098C
Perigee: 154,607.2 km
Apogee: 311,054.6 km
Inclination: 31.8 °
Period: 19,404.7 minutes
Semi major axis: 239201 km
RCS: Unknown
Launch date: July 14, 2023
Source: India (IND)
Launch site: SRIHARIKOTA (SRI)
Your satellite tracking list
Your tracking list is empty




NASA's NSSDC Master Catalog

Two Line Element Set (TLE):
1 57770U 23098C   24320.70792312 -.00002582  00000-0  00000-0 0  9998
2 57770  31.7862   8.9193 3270196 347.9907   6.6187  0.07420891   270
Source of the keplerian elements: AFSPC